STARLINK-1921, 46752

Orbit data source: Space-Track

STARLINK-1921, 46752 is a payload satellite owned by SpaceX/Seattle (US) in LEO that was launched on Sat, 24 Oct 2020 UTC via an FALCON 9 launch vehicle from the Air Force Eastern Test Range (AFETR). Payloads include a variety of satellites, spacecraft, and rockets equipped with specific instruments for various scientific and technological missions. These include communications satellites like Starlink; space stations such as the ISS; scientific satellites like the Hubble; Earth observation satellites from companies like Planet Labs, Umbra, and HawkEye 360; GPS; miniature CubeSats for education and research; and military/defense satellites.

Loading next visibility...
STARLINK-1921 details
Identifier
46752, 2020-074P
Orbit
LEO
Last TLE update9 hours ago
Origin
Flag of USSpaceX/Seattle (US)
ManufacturerSpaceX/Seattle
MissionPartially operational Commercial Communications
Bus & MotorSTARLINK, Unknown motor
Mass260 kg wet, ~248 kg dry
Launch date (UTC)
2020-10-24 (4 years ago)
Launch vehicle
FALCON 9
Launch site
Air Force Eastern Test Range (AFETR)
Object type
Payload
Rocket body
Debris
Shape & HBRBox + 1 Pan, 8.86 m
Radar Cross Section13.562 m², Large (>1 m²)

Expand to show TLE details & history

TLE from 9 hours ago
0 STARLINK-1921
1 46752U 20074P   24361.25001157  .00347792  00000-0  26462-2 0  9998
2 46752  53.0503 117.3074 0004342 350.6888 121.9988 15.70691038  5818
Epoch: 2024-12-26T06:00Z
Definitive object data (Epoch: 2024-12-26T06:00:00.999Z)
Latitude47.63319°
Longitude56.97904°
Altitude363.725 km
Speed7.696 km/s
True Right ascension16h 08m 51s
True Declination47° 27' 07"
Sunlit
Object was in daylight at TLE epoch
Visualization TLE readout
Latitude52.28024°
Longitude5.46058°
Altitude362.477 km
Speed7.698 km/s
Apparent Right ascension06h 10m 00s
Apparent Declination30° 25' 44"
Sunlit
Object is in daylight
Visualization observer readout
Local Sidereal Time14:23:35
Azimuth313.908° NW
Elevation-2.236°
Doppler factor1
Orbital elements
Apogee altitude360.124 km
Perigee altitude354.275 km
Semi-major axis6,735.337 km
Eccentricity0.0004342
Inclination53.0503°
RAAN117.3074°
Arg. of periapsis350.6888°
True anomaly122.04098°
Mean anomaly121.9988°
Eccentric anomaly122.01989°
Mean motion3.92649 °/min
BSTAR0.0026462
Orbital period91.69 mins
Loading maneuver chart data...

STARLINK-1921 Visibility forecast

Observer location: undefined°, undefined

Span
Click to sort rows by Start time (UTC) header in descending order
Start Az.
Max El. time (UTC)
Max El. Az.
Max El.
End time (UTC)
End Az.
4 mins2024-12-26 16:40:39.270Z342.136° N2024-12-26 16:42:39.270Z35.999° NE21.172°2024-12-26 16:44:39.270Z82.581° E
|